DateTimeUTC,F1_A11,F1_S11,BsB_S11,BsG_S11,BsR_S11,BbsB_S11,BbsG_S11,BbsR_S11,BaB_A11,BaG_A11,BaR_A11,Tu_S11,T_S11,Uu_S11,U_S11,P_S11,T1_A11
2021-04-10T21:00:00Z,00000200,21000000,,,,,,,0000.31,-000.36,0000.07,17.2,24.7,,00.0,0662.6,31.0
2021-04-10T21:01:00Z,00000200,21000000,,,,,,,-000.12,0000.14,0000.12,17.2,24.7,,00.0,0662.6,31.0
2021-04-10T21:02:00Z,00000200,21000000,,,,,,,0000.03,-000.24,-000.31,17.2,24.7,,00.0,0662.6,31.0
2021-04-10T21:03:00Z,00000200,61000000,,,,,,,0000.28,0000.59,0000.25,17.2,24.7,,00.0,0662.6,31.0
2021-04-10T21:04:00Z,00000200,41000000,0000.40,0000.11,-000.06,-000.32,0000.12,0000.09,0000.20,-000.02,0000.27,17.3,24.5,,00.0,0663.5,31.0
2021-04-10T21:05:00Z,00000200,01000000,0000.06,0000.19,0000.09,-000.07,-000.01,0000.08,0000.56,0000.52,0000.49,17.3,24.4,,00.0,0663.6,31.0
2021-04-10T21:06:00Z,00000200,01000000,0000.48,0000.25,0000.06,0000.11,-000.10,-000.21,-000.03,0000.13,-000.03,17.3,24.4,,00.0,0663.6,31.0
2021-04-10T21:07:00Z,00000200,01000000,0000.56,0000.37,0000.19,0000.25,-000.15,0000.12,0000.32,0000.46,0000.11,17.3,24.4,,00.0,0663.6,31.0
2021-04-10T21:08:00Z,00000200,01000000,0000.35,0000.19,0000.11,-000.23,0000.07,-000.22,0000.68,0000.19,0000.34,17.3,24.3,,00.0,0663.6,31.0
2021-04-10T21:09:00Z,00000200,01000000,0000.78,0000.22,0000.22,0000.14,0000.21,0000.02,-000.20,-000.22,-000.22,17.4,24.3,,00.0,0663.6,31.1
2021-04-10T21:10:00Z,00000200,01000000,0000.56,0000.26,0000.09,0000.32,-000.05,0000.24,-000.06,-000.04,0000.07,17.4,24.4,,00.0,0663.6,31.1
2021-04-10T21:11:00Z,00000200,01000000,0000.58,0000.41,0000.12,-000.09,-000.10,0000.04,-000.00,0000.18,0000.25,17.4,24.4,,00.0,0663.6,31.1
2021-04-10T21:12:00Z,00000200,01000000,0000.86,0000.19,0000.06,-000.50,-000.27,-000.24,0000.28,0000.01,0000.14,17.4,24.4,,00.0,0663.6,31.1
2021-04-10T21:13:00Z,00000200,01000000,0000.39,0000.32,0000.24,0000.00,0000.17,-000.23,-000.00,0000.28,-000.08,17.4,24.4,,00.0,0663.6,31.1
2021-04-10T21:14:00Z,00000200,01000000,0000.50,0000.38,0000.04,0000.17,-000.09,0000.14,0000.45,0000.24,0000.39,17.4,24.4,,00.0,0663.6,31.1
2021-04-10T21:15:00Z,00000200,01000000,0000.40,0000.47,0000.31,0000.19,0000.03,0000.02,-000.03,0000.04,-000.30,17.4,24.4,,00.0,0663.6,31.1
2021-04-10T21:16:00Z,00000200,01000000,0000.48,0000.28,0000.12,0000.12,0000.09,-000.22,-000.23,0000.06,0000.05,17.4,24.4,,00.0,0663.6,31.1
2021-04-10T21:17:00Z,00000200,01000000,0000.48,0000.55,-000.02,-000.31,-000.10,-000.16,0000.34,0000.12,0000.40,17.4,24.3,,00.0,0663.6,31.0
2021-04-10T21:18:00Z,00000200,01000000,0000.74,0000.25,0000.19,0000.46,-000.14,-000.07,0000.50,0000.09,-000.01,17.4,24.3,,00.0,0663.6,31.0
2021-04-10T21:19:00Z,00000200,01000000,0000.78,0000.26,0000.39,0000.39,-000.18,0000.07,-000.38,-000.28,-000.12,17.4,24.3,,00.0,0663.7,31.1
2021-04-10T21:20:00Z,00000200,01000000,0000.57,0000.50,0000.32,0000.05,0000.10,-000.04,0000.11,0000.03,-000.10,17.4,24.3,,00.0,0663.7,31.1
2021-04-10T21:21:00Z,00000200,01000000,0000.51,0000.41,0000.06,0000.67,0000.27,-000.14,-000.26,0000.28,-000.01,17.4,24.3,,00.0,0663.7,31.0
2021-04-10T21:22:00Z,00000200,01000000,0000.56,0000.63,0000.21,0000.47,0000.09,-000.15,0000.09,0000.15,0000.45,17.4,24.3,,00.0,0663.7,31.0
2021-04-10T21:23:00Z,00000200,01000000,0000.75,0000.33,0000.12,0000.07,0000.01,0000.08,0000.32,0000.09,0000.16,17.4,24.3,,00.0,0663.7,31.0
2021-04-10T21:24:00Z,00000200,01000000,0000.51,0000.48,0000.54,0000.12,0000.00,0000.12,-000.01,0000.04,0000.21,17.4,24.3,,00.0,0663.8,31.0
2021-04-10T21:25:00Z,00000200,01000000,0000.55,0000.53,0000.12,-000.18,-000.14,0000.03,0000.37,0000.12,-000.48,17.4,24.3,,00.0,0663.8,31.0
2021-04-10T21:26:00Z,00000200,01000000,0000.73,0000.19,0000.10,0000.18,-000.08,-000.07,-000.04,0000.05,0000.19,17.4,24.3,,00.0,0663.8,31.0
2021-04-10T21:27:00Z,00000200,01000000,0000.81,0000.60,0000.32,-000.26,0000.24,0000.09,0000.24,-000.03,0000.19,17.4,24.3,,00.0,0663.7,31.0
2021-04-10T21:28:00Z,00000200,01000000,0001.01,0000.65,0000.32,-000.05,0000.06,0000.03,-000.12,0000.15,0000.32,17.4,24.3,,00.0,0663.7,31.0
2021-04-10T21:29:00Z,00000200,01000000,0000.03,0000.51,-000.03,-000.38,-000.30,-000.10,0000.48,-000.02,-000.26,17.3,24.3,,00.0,0663.7,31.0
2021-04-10T21:30:00Z,00000200,01000000,0000.55,0000.35,0000.24,0000.33,-000.01,0000.14,-000.04,0000.40,0000.16,17.3,24.3,,00.0,0663.7,31.0
2021-04-10T21:31:00Z,00000200,01000000,0000.69,0000.65,-000.06,-000.29,0000.08,-000.28,0000.27,0000.27,0000.25,17.3,24.3,,00.0,0663.7,31.0
2021-04-10T21:32:00Z,00000200,01000000,0001.06,0000.49,0000.20,0000.00,-000.16,0000.03,0000.11,-000.09,0000.13,17.3,24.3,,00.0,0663.8,31.0
2021-04-10T21:33:00Z,00000200,01000000,0000.87,0000.31,0000.14,0000.04,0000.14,0000.26,-000.03,0000.20,-000.12,17.3,24.2,,00.0,0663.8,31.0
2021-04-10T21:34:00Z,00000200,01000000,0000.45,0000.39,0000.23,0000.11,0000.01,0000.07,0000.15,0000.13,0000.07,17.3,24.2,,00.0,0663.8,31.0
2021-04-10T21:35:00Z,00000200,01000000,0000.96,0000.25,0000.29,0000.35,-000.02,-000.04,-000.05,-000.15,0000.03,17.3,24.2,,00.0,0663.8,31.1
2021-04-10T21:36:00Z,00000200,01000000,0000.40,0000.48,0000.33,0000.15,0000.01,0000.16,0000.45,0000.83,0000.43,17.3,24.2,,00.0,0663.9,31.0
2021-04-10T21:37:00Z,00000200,01000000,0000.97,0000.61,0000.31,-000.10,0000.13,0000.21,-000.17,-000.18,0000.11,17.3,24.2,,00.0,0663.9,31.0
2021-04-10T21:38:00Z,00000200,01000000,0000.47,0000.51,0000.30,0000.35,0000.05,0000.34,0000.67,0000.58,0000.35,17.3,24.2,,00.0,0663.9,31.0
2021-04-10T21:39:00Z,00000200,01000000,0001.19,0000.68,0000.04,0000.25,0000.29,0000.09,-000.23,-000.59,-000.13,17.3,24.2,,00.0,0663.9,31.0
2021-04-10T21:40:00Z,00000200,01000000,0000.75,0000.32,0000.17,0000.03,-000.00,0000.02,0000.16,0000.27,0000.18,17.4,24.2,,00.0,0663.9,31.1
2021-04-10T21:41:00Z,00000200,01000000,0000.42,0000.42,0000.19,0000.18,-000.14,0000.04,0000.31,0000.66,0000.36,17.4,24.2,,00.0,0664.0,31.1
2021-04-10T21:42:00Z,00000200,01000000,0000.58,0000.44,0000.04,0000.01,0000.24,-000.03,0000.24,-000.19,-000.04,17.4,24.3,,00.0,0664.0,31.1
2021-04-10T21:43:00Z,00000200,01000000,0001.18,0000.39,0000.34,0000.36,-000.07,-000.10,0000.12,0000.43,0000.14,17.4,24.3,,00.0,0664.0,31.1
2021-04-10T21:44:00Z,00000200,01000000,0000.19,0000.46,0000.50,0000.17,-000.07,0000.26,0000.44,-000.16,0000.22,17.4,24.3,,00.0,0664.0,31.0
2021-04-10T21:45:00Z,00000200,01000000,-000.04,0000.29,-000.00,0000.33,0000.23,0000.09,0000.09,0000.28,0000.28,17.4,24.3,,00.0,0664.0,31.0
2021-04-10T21:46:00Z,00000200,01000000,0000.75,0000.23,0000.17,0000.55,-000.13,-000.24,-000.13,0000.46,-000.36,17.4,24.3,,00.0,0664.1,31.0
2021-04-10T21:47:00Z,00000200,01000000,0001.09,0000.60,0000.42,0000.13,0000.12,0000.03,0000.66,0000.44,0000.50,17.4,24.3,,00.0,0664.1,31.0
2021-04-10T21:48:00Z,00000200,01000000,0001.03,0000.64,0000.09,0000.32,0000.10,-000.33,0000.11,-000.07,-000.04,17.4,24.3,,00.0,0664.1,31.1
2021-04-10T21:49:00Z,00000200,01000000,0000.33,0000.22,0000.27,0000.22,-000.26,0000.12,0000.30,0000.14,0000.14,17.4,24.2,,00.0,0664.1,31.0
2021-04-10T21:50:00Z,00000200,01000000,0000.95,0000.33,0000.25,0000.43,0000.01,0000.27,0000.02,0000.11,0000.46,17.4,24.3,,00.0,0664.1,31.0
2021-04-10T21:51:00Z,00000200,01000000,0001.03,0000.24,0000.04,0000.59,-000.01,0000.09,0000.33,-000.06,-000.15,17.4,24.2,,00.0,0664.2,31.0
2021-04-10T21:52:00Z,00000200,01000000,0000.87,0000.24,0000.55,0000.19,0000.03,0000.27,-000.02,0000.51,-000.00,17.3,24.3,,00.0,0664.2,31.0
2021-04-10T21:53:00Z,00000200,01000000,0000.57,0000.35,0000.22,0000.36,-000.01,-000.04,0000.31,0000.32,0000.53,17.3,24.2,,00.0,0664.2,31.0
2021-04-10T21:54:00Z,00000200,01000000,0000.80,0000.25,0000.04,0000.07,-000.00,-000.18,0000.18,0000.05,-000.17,17.3,24.2,,00.0,0664.2,31.0
2021-04-10T21:55:00Z,00000200,01000000,0000.11,0000.35,0000.04,0000.40,-000.14,0000.06,0000.33,0000.22,0000.27,17.3,24.2,,00.0,0664.2,31.0
2021-04-10T21:56:00Z,00000200,01000000,0000.50,0000.66,0000.21,0000.00,-000.01,0000.04,0000.08,0000.02,0000.00,17.3,24.2,,00.0,0664.2,31.0
2021-04-10T21:57:00Z,00000200,41000000,,,,,,,0000.43,0000.27,0000.49,17.3,24.2,,00.0,0664.2,31.0
2021-04-10T21:58:00Z,00000200,61000000,,,,,,,-000.26,0000.06,-000.21,17.0,24.4,,00.0,0663.2,31.0
2021-04-10T21:59:00Z,00000200,21000000,,,,,,,0000.07,-000.07,-000.09,17.0,24.5,,00.0,0663.2,31.0
